Weather History for Arlington, WA

Change the Weather History Date:

Tuesday, January 1, 2013

  Actual Average Record
Temperature  
Mean Temperature 30 °F -  
Max Temperature 37 °F 37 °F 53 °F (1997)
Min Temperature 24 °F 15 °F 7 °F (1979)
Degree Days  
Heating Degree Days 34    
Moisture  
Dew Point 28 °F    
Average Humidity 90    
Maximum Humidity 100    
Minimum Humidity 75    
Precipitation  
Precipitation 0.00 in - - ()
Sea Level Pressure  
Sea Level Pressure 30.46 in    
Wind  
Wind Speed 0 mph (NNW)    
Max Wind Speed 5 mph    
Max Gust Speed -    
Visibility 4 miles    
Events      
Averages and records for this station are not official NWS values.
T = Trace of Precipitation, MM = Missing Value Source: NWS Daily Summary

Daily Weather History Graph

Daily Weather History Graph

Search for Another Location

Airport:

Trip Planner

Search our weather history database for the weather conditions in past years. The results will help you decide how hot, cold, wet, or windy it might be!

Date:

Astronomy

Jan. 01, 2013 Rise Set
Actual Time 7:59 AM PST 4:25 PM PST
Civil Twilight 7:22 AM PST 5:02 PM PST
Nautical Twilight 6:43 AM PST 5:41 PM PST
Astronomical Twilight 6:05 AM PST 6:19 PM PST
Moon 9:25 PM PST (1/1) 9:53 AM PST (1/1)
Length of Visible Light 9h 39m
Length of Day
8h 26m
Waning Gibbous, 82% of the Moon is Illuminated
Jan 1
Waning Gibbous
Jan 4
Last Quarter
Jan 11
New
Jan 18
First Quarter
Jan 26
Full

Hourly Weather History & Observations

Time (PST) Temp. Windchill Dew Point Humidity Pressure Visibility Wind Dir Wind Speed Gust Speed Precip Events Conditions
12:15 AM 32.0 °F - 30.2 °F 93% 30.48 in 4.0 mi Calm Calm - N/A   Overcast
12:35 AM 32.0 °F 28.7 °F 30.2 °F 93% 30.49 in 6.0 mi NNE 3.5 mph - N/A   Overcast
12:55 AM 32.0 °F - 30.2 °F 93% 30.49 in 8.0 mi Calm Calm - N/A   Overcast
1:15 AM 32.0 °F 28.7 °F 28.4 °F 87% 30.50 in 5.0 mi North 3.5 mph - N/A   Overcast
1:35 AM 30.2 °F 26.7 °F 28.4 °F 93% 30.50 in 1.8 mi North 3.5 mph - N/A   Overcast
2:15 AM 30.2 °F - 28.4 °F 93% 30.51 in 0.5 mi Calm Calm - N/A   Overcast
2:35 AM 30.2 °F - 28.4 °F 93% 30.52 in 0.2 mi Calm Calm - N/A   Overcast
2:55 AM 30.2 °F - 28.4 °F 93% 30.52 in 0.2 mi Calm Calm - N/A   Overcast
3:15 AM 28.4 °F - 26.6 °F 93% 30.52 in 0.2 mi Calm Calm - N/A   Overcast
3:35 AM 30.2 °F - 28.4 °F 93% 30.51 in 0.2 mi Calm Calm - N/A   Overcast
3:55 AM 28.4 °F - 26.6 °F 93% 30.49 in 0.8 mi Calm Calm - N/A   Overcast
4:15 AM 28.4 °F - 26.6 °F 93% 30.48 in 0.5 mi Calm Calm - N/A   Overcast
4:35 AM 28.4 °F - 26.6 °F 93% 30.48 in 0.2 mi Calm Calm - N/A   Overcast
4:55 AM 28.4 °F - 26.6 °F 93% 30.47 in 0.2 mi Calm Calm - N/A   Overcast
5:15 AM 28.4 °F - 26.6 °F 93% 30.48 in 0.2 mi Calm Calm - N/A   Overcast
5:35 AM 28.4 °F - 24.8 °F 86% 30.48 in 0.2 mi Calm Calm - N/A   Overcast
5:55 AM 26.6 °F - 24.8 °F 93% 30.48 in 0.2 mi Calm Calm - N/A   Overcast
6:15 AM 26.6 °F - 24.8 °F 93% 30.48 in 0.2 mi Calm Calm - N/A   Overcast
6:35 AM 26.6 °F - 24.8 °F 93% 30.48 in 0.2 mi Calm Calm - N/A   Overcast
7:15 AM 24.8 °F - 24.8 °F 100% 30.49 in 0.2 mi Calm Calm - N/A   Overcast
7:35 AM 26.6 °F - 23.0 °F 86% 30.49 in 0.2 mi Calm Calm - N/A   Overcast
7:55 AM 26.6 °F - 23.0 °F 86% 30.50 in 0.2 mi Calm Calm - N/A   Overcast
8:15 AM 24.8 °F - 23.0 °F 93% 30.51 in 0.5 mi Calm Calm - N/A   Overcast
8:35 AM 24.8 °F - 21.2 °F 86% 30.52 in 0.5 mi Calm Calm - N/A   Overcast
8:55 AM 24.8 °F - 23.0 °F 93% 30.52 in 0.5 mi Calm Calm - N/A   Overcast
9:15 AM 26.6 °F - 24.8 °F 93% 30.52 in 2.0 mi Calm Calm - N/A   Mostly Cloudy
9:35 AM 28.4 °F - 26.6 °F 93% 30.51 in 10.0 mi Calm Calm - N/A   Clear
9:55 AM 28.4 °F - 26.6 °F 93% 30.52 in 10.0 mi Calm Calm - N/A   Clear
10:15 AM 30.2 °F - 28.4 °F 93% 30.52 in 10.0 mi Calm Calm - N/A   Clear
10:35 AM 30.2 °F - 30.2 °F 100% 30.52 in 10.0 mi Calm Calm - N/A   Clear
10:55 AM 32.0 °F - 30.2 °F 93% 30.52 in 10.0 mi Calm Calm - N/A   Clear
11:15 AM 32.0 °F - 30.2 °F 93% 30.51 in 10.0 mi Calm Calm - N/A   Clear
11:35 AM 33.8 °F - 30.2 °F 87% 30.49 in 10.0 mi Calm Calm - N/A   Clear
11:55 AM 35.6 °F - 30.2 °F 81% 30.49 in 10.0 mi Calm Calm - N/A   Clear
12:15 PM 35.6 °F - 32.0 °F 87% 30.48 in 10.0 mi Calm Calm - N/A   Clear
12:35 PM 35.6 °F - 32.0 °F 87% 30.48 in 10.0 mi Calm Calm - N/A   Clear
12:55 PM 37.4 °F - 32.0 °F 81% 30.47 in 10.0 mi Calm Calm - N/A   Clear
1:15 PM 37.4 °F - 32.0 °F 81% 30.46 in 10.0 mi Calm Calm - N/A   Clear
1:35 PM 37.4 °F - 33.8 °F 87% 30.46 in 10.0 mi Calm Calm - N/A   Clear
2:15 PM 37.4 °F - 32.0 °F 81% 30.47 in 10.0 mi Calm Calm - N/A   Clear
2:35 PM 37.4 °F - 32.0 °F 81% 30.46 in 10.0 mi Calm Calm - N/A   Clear
3:15 PM 37.4 °F - 30.2 °F 75% 30.45 in 10.0 mi Calm Calm - N/A   Clear
3:35 PM 35.6 °F - 30.2 °F 81% 30.46 in 10.0 mi Calm Calm - N/A   Clear
3:55 PM 35.6 °F - 30.2 °F 81% 30.45 in 10.0 mi Calm Calm - N/A   Clear
4:15 PM 33.8 °F - 28.4 °F 81% 30.46 in 10.0 mi Calm Calm - N/A   Clear
4:35 PM 33.8 °F 29.6 °F 30.2 °F 87% 30.45 in 10.0 mi NW 4.6 mph - N/A   Clear
4:55 PM 32.0 °F 28.7 °F 28.4 °F 87% 30.45 in 10.0 mi NW 3.5 mph - N/A   Clear
5:15 PM 33.8 °F - 30.2 °F 87% 30.44 in 10.0 mi Calm Calm - N/A   Clear
5:35 PM 33.8 °F - 30.2 °F 87% 30.44 in 10.0 mi Calm Calm - N/A   Clear
5:55 PM 32.0 °F - 30.2 °F 93% 30.43 in 10.0 mi Calm Calm - N/A   Clear
6:15 PM 32.0 °F - 28.4 °F 87% 30.42 in 9.0 mi Calm Calm - N/A   Clear
6:35 PM 30.2 °F - 28.4 °F 93% 30.42 in 7.0 mi Calm Calm - N/A   Clear
6:55 PM 30.2 °F - 26.6 °F 86% 30.41 in 1.5 mi Calm Calm - N/A   Clear
7:15 PM 30.2 °F - 28.4 °F 93% 30.41 in 0.5 mi Calm Calm - N/A   Mostly Cloudy
7:35 PM 28.4 °F - 26.6 °F 93% 30.40 in 1.0 mi Calm Calm - N/A   Overcast
7:55 PM 28.4 °F - 26.6 °F 93% 30.40 in 0.2 mi Calm Calm - N/A   Overcast
8:15 PM 30.2 °F - 26.6 °F 86% 30.40 in 0.5 mi Calm Calm - N/A   Overcast
8:35 PM 28.4 °F - 26.6 °F 93% 30.41 in 2.0 mi Calm Calm - N/A   Overcast
8:55 PM 28.4 °F - 26.6 °F 93% 30.41 in 0.5 mi Calm Calm - N/A   Overcast
9:15 PM 28.4 °F - 26.6 °F 93% 30.40 in 1.0 mi Calm Calm - N/A   Overcast
9:35 PM 26.6 °F - 24.8 °F 93% 30.40 in 0.5 mi Calm Calm - N/A   Mostly Cloudy
9:55 PM 26.6 °F - 24.8 °F 93% 30.39 in 0.8 mi Calm Calm - N/A   Unknown
10:15 PM 28.4 °F - 28.4 °F 100% 30.39 in 3.0 mi Calm Calm - N/A   Mostly Cloudy
10:35 PM 28.4 °F - 24.8 °F 86% 30.39 in 0.5 mi Calm Calm - N/A   Overcast
10:55 PM 28.4 °F - 26.6 °F 93% 30.39 in 0.5 mi Calm Calm - N/A   Overcast
11:15 PM 28.4 °F - 24.8 °F 86% 30.38 in 0.2 mi Calm Calm - N/A   Overcast
11:35 PM 28.4 °F - 24.8 °F 86% 30.38 in 0.8 mi Calm Calm - N/A   Mostly Cloudy
11:55 PM 28.4 °F - 26.6 °F 93% 30.38 in 2.5 mi Calm Calm - N/A   Clear